Regional Weather Roundup
Issued by NWS

Home | Current Version | Previous Version | Text Only | Print | Product List | Glossary Off
Versions: 1 2 3 4 5 6 7 8 9 10 11 12 13 14 15 16 17 18 19 20 21 22 23 24 25 26 27 28 29 30 31 32 33 34 35 36 37 38 39 40 41 42 43 44 45 46 47 48 49 50

000
ASUS45 KSLC 212110
RWRUT

UTAH REGIONAL WEATHER ROUNDUP
NATIONAL WEATHER SERVICE SALT LAKE CITY UT
300 PM MDT TUE OCT 21 2014

UTZ001>011-023>025-212200-

NORTHERN UTAH

CITY           SKY/WX    TMP DP  RH WIND       PRES   REMARKS
BRIGHAM CITY   CLOUDY    58  31  36 N3        30.02S
HILL AFB       PTSUNNY   58  32  38 NW8       30.03S
LOGAN          MOSUNNY   56  39  53 CALM      30.01F
OGDEN          PTSUNNY   60  31  33 NW9G18    30.01S
PROVO AIRPORT  PTSUNNY   63  41  45 NW12G17   29.95
SALT LAKE CITY PTSUNNY   62  37  39 NW14      30.01R
VERNAL         MOSUNNY   67  41  38 SW14      29.94F
WENDOVER       MOSUNNY   63  16  16 NW12      30.00S
HEBER CITY     PTSUNNY   61  36  39 CALM      29.95F
WEST JORDAN    PTSUNNY   61  41  48 NW18G25   30.02S

$$

UTZ012>022-026-027-212200-

SOUTHERN/CENTRAL UTAH

CITY           SKY/WX    TMP DP  RH WIND       PRES   REMARKS
BLANDING       MOSUNNY   65  41  41 S9        30.12F
BRYCE CANYON   MOSUNNY   59  36  42 SW6       30.09F
CEDAR CITY     SUNNY     70  36  28 S20G29    29.99F
DELTA          MOSUNNY   69  35  28 NW14      29.92F
HANKSVILLE       N/A     75  36  23 SE10      29.93F
MILFORD        SUNNY     73  39  29 SW16G30   29.94F
MOAB/CYNLANDS  SUNNY     76  39  26 S17G23    29.91F
PRICE          PTSUNNY   66  39  37 CALM      29.97F
ST GEORGE      PTCLDY    81  43  26 W6        29.88F

$$

REGIONAL REPORTS     COLORADO/ARIZONA

CITY           SKY/WX    TMP DP  RH WIND       PRES   REMARKS
CRAIG, CO      CLOUDY    65  39  38 SW13      29.99F
GRAND JUNCTION CLOUDY    67  43  41 W9        29.96F
RIFLE          CLOUDY    63  45  51 CALM      30.00F
MONTROSE       CLOUDY    60  45  57 SE12      30.07S
CORTEZ         SUNNY     67  41  38 VRB5      30.07F
PAGE, AZ       SUNNY     75  39  27 NE6       29.94F
GRAND CANYON   MOSUNNY   67  34  29 SW14      30.09F
KINGMAN        SUNNY     80  43  26 SW14G22   29.93F
FLAGSTAFF      SUNNY     65  35  33 SW12      30.12F

$$

REGIONAL REPORTS    NEVADA/IDAHO/WYOMING

CITY           SKY/WX    TMP DP  RH WIND       PRES   REMARKS
LAS VEGAS, NV  MOSUNNY   85  24  11 SW20G25   29.79F
ELY            CLOUDY    61  10  13 NW12      30.03F
ELKO           SUNNY     57  20  23 W8        30.07F
POCATELLO, ID  PTSUNNY   53  36  52 W22       30.04F
BURLEY         LGT RAIN  52  36  54 W17G29    30.04S
EVANSTON, WY   PTSUNNY   55  34  45 W18G26    30.03S
ROCK SPRINGS   PTSUNNY   57  34  41 W20G40    29.97R
KEMMERER       PTSUNNY   52  36  54 W23       30.02S

$$



USA.gov is the U.S. government's official web portal to all federal, state and local government web resources and services.